BGKK

Kulusuk Airport

Kulusuk, Greenland
Issued Wind Visibility Ceiling Temperature Dew Point Humidity Barometer
Aug-23
10:50 UTC
030°
2 KTS
10,000+ meters   C
46° F
C
41° F
82% 30.09" Hg
1019 hPa
VFR
Aug-23
09:50 UTC
280°
3 KTS
10,000+ meters   C
46° F
C
41° F
82% 30.09" Hg
1019 hPa
VFR
Aug-23
08:50 UTC
Varies @4 KTS   Broken
5,500' AGL
C
45° F
C
41° F
87% 30.09" Hg
1019 hPa
Aug-23
07:50 UTC
Varies @4 KTS   Overcast
5,700' AGL
C
43° F
C
41° F
93% 30.09" Hg
1019 hPa
Aug-23
06:50 UTC
040°
6 KTS
  Overcast
5,800' AGL
C
43° F
C
39° F
87% 30.12" Hg
1020 hPa
Aug-23
05:50 UTC
080°
7 KTS
  Overcast
4,000' AGL
C
46° F
C
41° F
82% 30.09" Hg
1019 hPa
Aug-23
04:50 UTC
050°
5 KTS
  Broken
4,300' AGL
C
43° F
C
39° F
87% 30.12" Hg
1020 hPa
Aug-23
03:50 UTC
040°
5 KTS
  Broken
1,500' AGL
C
45° F
C
41° F
87% 30.12" Hg
1020 hPa
Aug-23
02:50 UTC
Varies @4 KTS   Broken
4,400' AGL
C
45° F
C
41° F
87% 30.12" Hg
1020 hPa
Aug-23
01:50 UTC
050°
5 KTS
  Broken
1,100' AGL
C
45° F
C
41° F
87% 30.12" Hg
1020 hPa
Aug-23
00:50 UTC
070°
6 KTS
  Overcast
1,000' AGL
C
45° F
C
43° F
93% 30.15" Hg
1021 hPa
Aug-22
23:50 UTC
Varies @4 KTS   Broken
1,400' AGL
C
45° F
C
41° F
87% 30.15" Hg
1021 hPa
Aug-22
22:50 UTC
100°
6 KTS
  Overcast
900' AGL
C
45° F
C
43° F
93% 30.15" Hg
1021 hPa
Aug-22
21:50 UTC
100°
8 KTS
  Overcast
900' AGL
C
45° F
C
43° F
93% 30.12" Hg
1020 hPa
Aug-22
20:50 UTC
090°
9 KTS
10,000+ meters Broken
2,200' AGL
C
46° F
C
43° F
87% 30.12" Hg
1020 hPa
MVFR
Aug-22
19:50 UTC
090°
11 KTS
10,000+ meters Broken
1,800' AGL
C
46° F
C
43° F
87% 30.12" Hg
1020 hPa
MVFR
Aug-22
18:50 UTC
090°
8 KTS
10,000+ meters Broken
1,200' AGL
C
46° F
C
43° F
87% 30.12" Hg
1020 hPa
MVFR
Aug-22
17:50 UTC
110°
7 KTS
10,000+ meters Broken
1,200' AGL
C
46° F
C
43° F
87% 30.09" Hg
1019 hPa
MVFR
Aug-22
16:50 UTC
080°
8 KTS
7,001 meters Broken
1,200' AGL
C
46° F
C
43° F
87% 30.09" Hg
1019 hPa
MVFR
Aug-22
15:50 UTC
080°
10 KTS
10,000+ meters Broken
1,700' AGL
C
46° F
C
43° F
87% 30.09" Hg
1019 hPa
MVFR
Aug-22
14:50 UTC
080°
11 KTS
10,000+ meters Broken
1,500' AGL
C
45° F
C
43° F
93% 30.09" Hg
1019 hPa
MVFR
Aug-22
13:50 UTC
070°
11 KTS
5,005 meters Broken
1,200' AGL
C
45° F
C
43° F
93% 30.09" Hg
1019 hPa
MVFR
Aug-22
12:50 UTC
080°
11 KTS
10,000+ meters Broken
1,500' AGL
C
45° F
C
43° F
93% 30.09" Hg
1019 hPa
MVFR